Regional Weather Roundup
Issued by NWS

Home | Current Version | Previous Version | Graphics & Text | Print | Product List | Glossary On
Versions: 1 2 3 4 5 6 7 8 9 10 11 12 13 14 15 16 17 18 19 20 21 22 23 24 25 26 27 28 29 30 31 32 33 34 35 36 37 38 39 40 41 42 43 44 45 46 47 48 49 50
000
ASUS45 KCYS 030610
RWRWY

WYOMING REGIONAL WEATHER ROUNDUP
NATIONAL WEATHER SERVICE CHEYENNE WY
1100 PM MST FRI DEC 02 2016

NOTE:  "FAIR" INDICATES FEW OR NO CLOUDS BELOW 12,000 FEET
WITH NO SIGNIFICANT WEATHER AND/OR OBSTRUCTIONS TO VISIBILITY.

WYZ001-030700-
YELLOWSTONE NATIONAL PARK

CITY           SKY/WX    TMP DP  RH WIND       PRES   REMARKS
LK YELLOWSTONE   N/A     11   8  88 CALM      30.10F
6HR MIN TEMP:   5; 6HR MAX TEMP:  15;

W YELLOWSTONE  NOT AVBL

$$
WYZ002>013-054>058-071-098>099-030700-
NORTHERN WYOMING

CITY           SKY/WX    TMP DP  RH WIND       PRES   REMARKS
JACKSON        FAIR      14  12  92 CALM      30.16F
CODY           NOT AVBL
GREYBULL       FAIR      27  15  61 SE6       30.05F WCI  20
6HR MIN TEMP:  25; 6HR MAX TEMP:  33;

WORLAND        FAIR      24  17  74 SE8       30.03S WCI  15
6HR MIN TEMP:  24; 6HR MAX TEMP:  29;

SHERIDAN       FAIR      16  10  77 NW5       29.97F WCI   9
6HR MIN TEMP:  16; 6HR MAX TEMP:  29;

BUFFALO        FAIR      23   7  50 SW5       29.96F WCI  17
6HR MIN TEMP:  21; 6HR MAX TEMP:  30;

GILLETTE       FAIR      26  18  71 S20       30.00F WCI  12
6HR MIN TEMP:  21; 6HR MAX TEMP:  27;

HULETT         FAIR      32  23  69 S20       30.04F WCI  20
NEWCASTLE      FAIR      27  19  74 SE10      30.11F WCI  17

$$
WYZ014>020-022>026-101>103-030700-
CENTRAL WYOMING

CITY           SKY/WX    TMP DP  RH WIND       PRES   REMARKS
BIG PINEY      FAIR       4  -1  80 E3        30.15S
6HR MIN TEMP:   2; 6HR MAX TEMP:  22;

PINEDALE       FAIR       3   0  85 N12       30.15S WCI -13
DUBOIS         FAIR      16   3  57 N22G28    30.03S WCI  -2
LANDER         FAIR      21   6  52 SW7       30.03F WCI  12
6HR MIN TEMP:  14; 6HR MAX TEMP:  23;

RIVERTON       FAIR      17  12  80 W9        30.04F WCI   6
6HR MIN TEMP:  17; 6HR MAX TEMP:  27;

CASPER         FAIR      21  14  74 SW10      30.06F WCI  10
6HR MIN TEMP:  14; 6HR MAX TEMP:  23;

DOUGLAS        FAIR      13  12  96 SE3       30.08F FOG
6HR MIN TEMP:  13; 6HR MAX TEMP:  27;


$$
WYZ021-027>030-104>119-030700-
SOUTHERN WYOMING

CITY           SKY/WX    TMP DP  RH WIND       PRES   REMARKS
EVANSTON       FAIR      11   5  77 S6        30.17F WCI   1
6HR MIN TEMP:  11; 6HR MAX TEMP:  20;

FORT BRIDGER   CLEAR     16   9  73 W14       30.19F WCI   1
ROCK SPRINGS   NOT AVBL
DIXON          CLOUDY    15  12  87 CALM      30.21S
RAWLINS        FAIR      14   9  80 SW9       30.11F WCI   2
6HR MIN TEMP:   3; 6HR MAX TEMP:  15;

SARATOGA       CLOUDY    12  10  92 S8        30.13F WCI   1
LARAMIE        CLOUDY     6   4  91 NE6       30.08R FOG     WCI  -4
6HR MIN TEMP:   4; 6HR MAX TEMP:  18;

CHEYENNE       CLOUDY    23  20  88 SW9       30.11S WCI  13
6HR MIN TEMP:  23; 6HR MAX TEMP:  25; 6HR PCP: TRACE;

TORRINGTON     FAIR      25  22  88 S7        30.14F WCI  17
6HR MIN TEMP:  24; 6HR MAX TEMP:  33;

PINE BLUFFS    MOCLDY    23  21  93 SW3       30.15S

$$



USA.gov is the U.S. government's official web portal to all federal, state and local government web resources and services.